Location: Fosso Corella
(43.9167°N, 11.5667°E)
Time: 20:57:01
(UTC+00:00)

COSMOS 2428 - Pass Details

Date: 07 June 2020
Orbit: 845 x 858 km, 70.9° (Epoch: 11 July)

Event Time Altitude Azimuth Distance (km) Brightness Sun altitude
Exits shadow 02:06:50 - 174° (S) 2,956 5.1 -12.3°
Reaches altitude 10° 02:08:15 10° 169° (SSE) 2,461 4.8 -12.1°
Maximum altitude 02:13:18 35° 105° (ESE) 1,348 4.0 -11.5°
Drops below altitude 10° 02:18:22 10° 42° (NE) 2,473 6.7 -10.9°
Sets 02:21:00 0° 34° (NNE) 3,413 7.9 -10.6°
